India Forums Logo

Phir Subah Hogi

India Forums > Forum Index > Phir Subah Hogi
Phir Subah Hogi
<< | 1 | 2 | 3 | 4 | 5 | 6 | 7 | 8 | 9 | 10 | 11 | 12 | 13 | ... >>
TIDTopic SubjectStart DateLast Entry
2980954Sardhakai - formalities around the practice - PG 35/16/2012 12:06:44 AM5/23/2012 2:15:15 AM
2981250Rangmunch Recommends PSH5/16/2012 3:40:47 AM5/16/2012 4:21:11 PM
2982243PSH WU 16 MAY 2012 Panchayat for Sugni's family5/16/2012 11:20:43 AM5/17/2012 11:38:41 PM
2982266angry at thakurs in todays episode5/16/2012 11:29:14 AM5/17/2012 12:02:15 AM
2982464PSH-16thMay12-Video-OL/DL/Pics+PRECAP+ESub *HDQ*5/16/2012 1:09:25 PM5/17/2012 3:37:38 PM
2982683New Promo Panchayat verdict5/16/2012 6:59:54 PM5/17/2012 1:54:22 PM
2982871Mustached Thakurs vs clean shaven Vikram Thakur5/16/2012 11:43:12 PM5/18/2012 1:03:28 AM
2982897PSH-18thMay12-NEW Video PROMO !HD!5/17/2012 12:11:49 AM5/17/2012 5:20:12 AM
2984131~PSH Update 17th May Panchayat Verdict~5/17/2012 10:42:01 AM5/17/2012 7:40:39 PM
2984566all time5/17/2012 1:46:46 PM5/18/2012 12:41:39 AM
2984666PSH-17thMay12-Video-OL/DL/Pics+PRECAP+ESub *DVDQ*5/17/2012 3:43:06 PM5/17/2012 6:43:17 PM
2985032Expressindia- Drama of real life-Phir subah5/18/2012 1:29:57 AM5/18/2012 11:46:09 AM
2985162TT Review Phir Subah Hogi 16/5/20125/18/2012 3:48:13 AM5/20/2012 4:12:34 AM
2986039sugni quiet ...this is the worst!!5/18/2012 10:36:24 AM5/20/2012 6:52:11 PM
2986184New Promo no one talks with Sugni and family5/18/2012 11:27:03 AM5/21/2012 12:10:36 AM
2986227WRITTEN UPDATES 18th MAY 20125/18/2012 11:41:40 AM5/19/2012 5:05:09 PM
2986294mods-please add Gulki Joshi[sugni] name5/18/2012 12:01:50 PM5/19/2012 12:07:04 PM
2986333PSH-18thMay12-Video-OL/DL/Pics+PRECAP+ESub *DVDQ*5/18/2012 12:27:10 PM5/19/2012 1:46:09 PM
2986335The Parting Look - 18/55/18/2012 12:27:22 PM5/22/2012 10:35:53 AM
2986520PSH-21stMay12-NEW Video PROMO !HD!5/18/2012 2:03:16 PM5/19/2012 1:07:32 PM
2987163After the panchayat verdict- a guess5/19/2012 4:19:41 AM5/19/2012 1:33:25 PM
2987367Rediff article on Varun Badola and PSH5/19/2012 7:14:33 AM5/20/2012 9:13:04 AM
2987575Vikram-Sugni parallels: May 18th5/19/2012 10:05:03 AM5/22/2012 11:34:47 PM
2987719latest trp rating5/19/2012 11:33:06 AM5/20/2012 12:29:43 PM
2987841Why strong woman characters never work in India?5/19/2012 1:55:13 PM5/22/2012 7:09:23 AM
2988554PSH to end due to production house problems5/20/2012 6:43:31 AM5/21/2012 11:01:31 PM
2989854Aditya's criteria of identifying people : amazing5/21/2012 6:48:42 AM5/22/2012 9:04:47 AM
2990427~Phir Subah Hogi Written Update 21st May~5/21/2012 10:40:35 AM5/23/2012 5:33:39 AM
2990571Bedias--their support and opposition5/21/2012 11:36:25 AM5/23/2012 10:42:57 AM
2990711PSH-21stMay12-Video-OL/DL/Pics+PRECAP+ESub *DVDQ*5/21/2012 12:46:31 PM5/22/2012 12:10:40 AM
2991794New Promo.. Vikram gives his coat to cold Sugni5/22/2012 7:46:15 AM6/7/2012 6:48:35 AM
2992380~Phir Subah Hogi Written Update 22nd May 2012~5/22/2012 10:37:31 AM5/23/2012 12:39:05 AM
2992423Soo confused5/22/2012 10:50:36 AM5/22/2012 12:14:21 PM
2992649The Tragedy Saga and the Wicked Daisa - 22/55/22/2012 11:54:07 AM5/23/2012 9:56:21 AM
2992946PSH-22ndMay12-Video-OL/DL/Pics+PRECAP+ESub *DVDQ*5/22/2012 2:59:06 PM5/22/2012 10:51:19 PM
2993043New Promo?5/22/2012 5:29:44 PM5/22/2012 5:29:44 PM
2993054disgusting men5/22/2012 5:58:18 PM5/27/2012 11:21:51 PM
2993085PSH-24thMay12-NEW Video PROMO !HD!5/22/2012 6:57:19 PM5/24/2012 5:02:58 PM
2993098Sugni and Vikram...<35/22/2012 7:21:28 PM5/22/2012 7:21:28 PM
2993193Varun plays philanderer5/22/2012 9:48:32 PM5/24/2012 3:59:17 PM
2993195MP strives to get rid of prostitution in tribes5/22/2012 9:50:28 PM5/22/2012 10:30:32 PM
2993725The New Ranking Is # 305/23/2012 4:03:08 AM5/23/2012 7:57:45 AM
2994061Stop with Vikram Married5/23/2012 7:54:12 AM5/24/2012 9:43:00 PM
2994359Daii Ma5/23/2012 10:00:48 AM5/23/2012 10:01:54 AM
2994428Vikram bane shayar5/23/2012 10:35:57 AM5/23/2012 10:35:57 AM
2994454Ek Suljha sa Jawaab ya Ek uljha sa Sawaal - 23/55/23/2012 10:51:07 AM5/24/2012 11:51:25 AM
2994506Bamsukhia and Gulabiya5/23/2012 11:18:00 AM7/2/2012 1:18:14 PM
2994583WU PSH 23 May 2012 Amrita TVS decide 2 help Sugni5/23/2012 11:46:07 AM5/24/2012 1:54:14 AM
2994684PSH-23rdMay12-Video-OL/DL/Pics+PRECAP+ESub *DVDQ*5/23/2012 12:33:24 PM5/23/2012 8:29:43 PM
2994732vikram-sugni and ore priya.5/23/2012 1:04:46 PM5/24/2012 1:49:16 PM
2994744And you?5/23/2012 1:09:12 PM5/24/2012 8:37:38 AM
2994940Vikram does the Sardhakai of Sugni5/23/2012 5:40:36 PM5/24/2012 9:46:42 AM
2994943Amrita why??5/23/2012 5:47:18 PM5/24/2012 7:31:26 AM
2995364psh old promo--vikram dose sardhakhayi,5/24/2012 2:55:40 AM5/24/2012 7:40:49 AM
2996193Sugni's undampened spirit - 24/55/24/2012 10:44:36 AM5/25/2012 1:53:54 PM
2996323~Phir Subah Hogi Update 24th May 2012~5/24/2012 11:36:05 AM5/25/2012 8:38:52 AM
2996361new promo--vikrams promise to sugni.5/24/2012 11:45:32 AM5/25/2012 11:18:45 AM
2996438PSH-24thMay12-Video-OL/DL/Pics+PRECAP+ESub *HDQ*5/24/2012 12:14:30 PM5/24/2012 8:09:49 PM
2996467Rats desert the ship 1st when it starts sinking5/24/2012 12:28:34 PM6/2/2012 6:09:55 PM
2997013TB Article: PSH Tagged5/25/2012 1:50:56 AM5/25/2012 1:50:56 AM
2997133Rangmunch Article-PSH/Shifting sands5/25/2012 3:30:55 AM5/25/2012 11:05:53 AM
2997882~Phir Subah Hogi Update 25th May~5/25/2012 11:10:12 AM5/26/2012 5:30:48 PM
2997891You are light at the end of my dark tunnel - 25/55/25/2012 11:13:17 AM5/29/2012 3:04:25 AM
2997898PSH-25thMay12-Video-OL/DL/Pics+PRECAP+ESub *DVDQ*5/25/2012 11:16:22 AM5/26/2012 9:48:14 AM
2999166Why the leads do not look good together5/26/2012 9:47:18 AM5/29/2012 4:21:00 AM
2999507Hi everyone5/26/2012 4:19:37 PM5/27/2012 12:00:00 PM
3000952TT: Top Scene of the week5/28/2012 12:34:30 AM5/28/2012 12:34:30 AM
3001037posted article sorry.5/28/2012 1:48:18 AM5/28/2012 1:48:18 AM
3002049~Phir Subah Hogi Update 28th May 2012~5/28/2012 10:32:11 AM5/29/2012 3:10:35 AM
3002095SO SAD !!!5/28/2012 10:47:38 AM5/29/2012 9:14:59 PM
3002122Paapi Pet - 28/55/28/2012 10:57:23 AM5/29/2012 7:16:19 AM
3002219New Promo Sugvi at temple5/28/2012 11:26:32 AM5/28/2012 1:23:16 PM
3002222New promo 28th may TVS takes Sugni inside temple5/28/2012 11:26:47 AM5/28/2012 11:32:38 PM
3002398PSH-28thMay12-Video-OL/DL/Pics+PRECAP+ESub *DVDQ*5/28/2012 12:33:32 PM5/29/2012 10:16:00 AM
3003024PSH-31stMay12-NEW Video PROMO !HD!5/28/2012 11:44:42 PM5/29/2012 7:16:43 PM
<< | 1 | 2 | 3 | 4 | 5 | 6 | 7 | 8 | 9 | 10 | 11 | 12 | 13 | ... >>